{"data":{"norad_id":64821,"epoch":"2026-07-28T15:36:39.006144Z","epoch_age_seconds":4829733,"freshness":"OLD","line1":"1 64821U 25151F   26209.65045146  .15326501  12365-4  17831-2 0  9991","line2":"2 64821  51.8590 285.3762 0006604 313.9083  46.1400 16.35865824 57710","mean_motion":16.35865824,"eccentricity":0.0006604,"inclination_deg":51.859,"raan_deg":285.3762,"arg_perigee_deg":313.9083,"mean_anomaly_deg":46.14,"bstar":0.0017831,"rev_number":5771,"period_min":88.026779389457,"perigee_km":172.49424355399,"apogee_km":181.15203490588,"semimajor_km":6554.9601392299,"source":"CELESTRAK","updated_at":"2026-07-29T09:00:41.483252Z"}}